Location: Amador Park
(38.1041°N, 122.2441°W)
Time: 21:15:17
(UTC+00:00)

Daily predictions for brighter satellites

Satellite Brightness Start Highest point End
(mag) Time Altitude Azimuth Time Altitude Azimuth Time Altitude Azimuth
STARLINK-1189 3.8 12:00:06 10° WNW 12:02:46 26° SW 12:05:27 10° S
STARLINK-1188 3.9 12:00:58 10° WNW 12:03:38 26° SW 12:06:17 10° S
STARLINK-1235 4.3 12:01:58 10° W 12:04:15 19° SW 12:06:32 10° S
Cosmos 1076 Rocket 3.5 12:00:09 10° S 12:04:29 86° W 12:08:52 10° N
STARLINK-1187 4.1 12:02:14 10° WNW 12:04:42 22° SW 12:07:09 10° S
Uosat 12 SS-18 rocket 4.3 12:01:23 10° NNW 12:05:42 76° ENE 12:10:24 10° SE
STARLINK-1191 3.9 12:03:30 10° WNW 12:06:05 24° SW 12:08:39 10° S
STARLINK-1211 3.5 12:02:36 10° NW 12:06:45 81° SW 12:10:53 10° SE
STARLINK-1221 4.0 12:04:25 10° WNW 12:06:58 24° SW 12:09:31 10° S
STARLINK-1222 4.0 12:05:18 10° WNW 12:07:50 23° SW 12:10:22 10° S
STARLINK-1214 4.0 12:06:15 10° WNW 12:08:46 22° SW 12:11:15 10° S
STARLINK-26 3.9 12:05:38 10° SSW 12:08:55 44° SE 12:12:13 10° ENE
Landsat 5 4.1 12:05:07 10° S 12:09:20 42° W 12:13:38 10° NNW
ERS-2 3.8 12:07:48 10° SW 12:10:12 17° W 12:12:37 10° NW
Cosmos 2150 Rocket 4.0 12:05:10 10° NNW 12:10:22 86° WSW 12:15:30 10° SSE
Cosmos 1825 3.7 12:07:30 10° SSE 12:10:59 37° E 12:14:29 10° NNE
STARLINK-1245 3.5 12:07:36 10° NW 12:11:44 73° SW 12:15:51 10° SE
STARLINK-1233 3.6 12:12:34 10° NW 12:16:41 66° SW 12:20:47 10° SE
STARLINK-43 3.6 12:13:24 10° WSW 12:17:02 58° NW 12:20:40 10° NE
ARIANE 5 R/B 4.2 12:16:42 10° NNW 12:19:51 17° WNW 12:22:56 10° WSW
CZ-4B R/B 1.1 12:17:05 10° SSE 12:20:08 85° WSW 12:23:11 10° NNW
Cosmos 1689 Rocket 4.0 12:18:23 10° SE 12:21:04 34° ENE 12:23:46 10° N
STARLINK-1204 3.7 12:17:35 10° NW 12:21:40 59° SW 12:25:44 10° SSE
USA 234 3.7 12:18:17 10° NE 12:24:37 54° NW 12:30:56 10° WSW
PSLV R/B 3.7 12:21:05 10° N 12:25:13 55° WNW 12:29:19 10° SSW
Nadezhda 3 Rocket 4.4 12:19:44 10° NNW 12:25:39 45° W 12:31:35 10° SSW
